Flag for Brunei Weather past 2 weeks in Kuala Belait, Brunei

Now
86 °F

Partly sunny.


Feels Like: 95 °F
Forecast: 77 / 89 °F
Wind: 10 mph from North

Location: Miri Airport

Current Time: Mar 29, 2015 at 5:47:53 PM

Latest Report: Mar 29, 2015 at 5:00 PM


Visibility: 5 mi

Pressure: 29.77 "Hg

Humidity: 70%

Dew point: 75 °F

Location of Kuala BelaitLocation

Historic Weather in Kuala Belait — Graph

°F

Kuala Belait temperature yesterday

Maximum temperature yesterday: 88 °F (at 2:00 PM)
Minimum temperature yesterday: 75 °F (at 2:00 AM)
Average temperature yesterday: 81 °F

Past Weeks' High & Low Weather Summary

 TemperatureHumidityPressure
High91 °F (Mar 24, 1:00 PM)100% (Mar 15, 2:00 AM)29.98 "Hg (Mar 15, 2:00 AM)
Low72 °F (Mar 17, 5:00 AM)52% (Mar 24, 1:00 PM)29.74 "Hg (Mar 19, 4:00 PM)
Average81 °F84%29.86 "Hg
* Reported Mar 14 4:00 PM — Mar 29 4:00 PM, Kuala Belait, Weather by CustomWeather, © 2015

Note: Actual official high and low records may vary slightly from our data, if they occured in-between our weather recording intervals... More about our weather records

Advertising

Kuala Belait weather history for previous 24 hours

 ConditionsComfort  
Time TempWeatherWind HumidityBarometerVisibility
4:00 PM
Sun, Mar 29
86 °FBroken clouds.10 mph75%29.74 "Hg5 mi
3:00 PM86 °FBroken clouds.12 mph75%29.74 "Hg5 mi
2:00 PM86 °FBroken clouds.12 mph75%29.77 "Hg5 mi
1:00 PM86 °FBroken clouds.9 mph75%29.80 "Hg5 mi
12:00 PM88 °FBroken clouds.8 mph75%29.83 "Hg5 mi
11:00 AM86 °FBroken clouds.6 mph75%29.83 "Hg5 mi
10:00 AM86 °FBroken clouds.3 mph70%29.86 "HgN/A
9:00 AM84 °FBroken clouds.5 mph74%29.86 "Hg4 mi
8:00 AM81 °FBroken clouds.5 mph89%29.83 "Hg4 mi
7:00 AM79 °FBroken clouds.2 mph94%29.80 "Hg4 mi
6:00 AM77 °FPartly cloudy.No wind94%29.80 "HgN/A
5:00 AM75 °FPassing clouds.2 mph100%29.77 "HgN/A
4:00 AM77 °FPassing clouds.No wind94%29.77 "HgN/A
3:00 AM77 °FPassing clouds.1 mph94%29.77 "HgN/A
2:00 AM77 °FPassing clouds.No wind94%29.80 "HgN/A
1:00 AM77 °FPassing clouds.2 mph100%29.80 "HgN/A
12:00 AM79 °FPassing clouds.2 mph94%29.83 "HgN/A
11:00 PM
Sat, Mar 28
79 °FPassing clouds.2 mph94%29.86 "HgN/A
10:00 PM79 °FPartly cloudy.5 mph94%29.86 "HgN/A
9:00 PM81 °FPassing clouds.6 mph89%29.83 "HgN/A
8:00 PM81 °FPassing clouds.6 mph89%29.83 "HgN/A
7:00 PM81 °FPartly cloudy.8 mph89%29.80 "HgN/A
6:00 PM82 °FPartly sunny.10 mph84%29.77 "HgN/A
5:00 PM86 °FPartly sunny.9 mph75%29.77 "HgN/A
Weather by CustomWeather, © 2015

See weather overviewHow to use our weather pages